Location: Piotrkow Trybunalski
(51.4000°N, 19.6830°E)
Time: 00:09:55
(UTC+01:00)

A-11 Canister half - Pass Details

Date: 19 December 2023
Orbit: 1512 x 1687 km, 47.2° (Epoch: 23 February)

Event Time Altitude Azimuth Distance (km) Brightness Sun altitude
Rises 21:13:33 0° 243° (WSW) 4,666 11.8 -50.6°
Reaches altitude 10° 21:16:35 10° 240° (WSW) 3,698 11.2 -51.0°
Enters shadow 21:17:31 14° 239° (WSW) 3,411 10.9 -51.1°
